Location: CCZU
(31.6840°N, 119.9550°E)
Time: 22:02:29
(UTC+08:00)

Tiangong - Visible Passes

Search period start: 23 September 2023 00:00
Search period end: 03 October 2023 00:00
Orbit: 374 x 385 km, 41.5° (Epoch: 23 September)

Date Brightness Start Highest point End Pass type
(mag) Time Alt. Az. Time Alt. Az. Time Alt. Az.
23 Sep -0.4 04:12:07 24° SSE 04:12:07 24° SSE 04:13:34 10° SE visible
24 Sep 0.3 04:46:51 10° SSW 04:46:51 10° SSW 04:46:59 10° SSW visible
26 Sep -1.0 19:10:29 10° SSW 19:12:39 30° S 19:12:39 30° S visible
27 Sep 0.2 19:45:27 10° WSW 19:46:51 23° W 19:46:51 23° W visible
28 Sep -2.2 18:43:55 10° SW 18:47:01 70° SSE 18:48:44 24° ENE visible
29 Sep -0.8 19:19:21 10° W 19:22:13 33° NNW 19:22:31 32° N visible
30 Sep -1.7 18:17:27 10° WSW 18:20:32 61° NNW 18:23:38 10° NE visible
30 Sep 1.1 19:55:30 10° NW 19:56:08 13° NW 19:56:08 13° NW visible
01 Oct -0.1 18:53:12 10° WNW 18:55:46 23° NNW 18:57:30 15° NNE visible
02 Oct 0.5 19:29:20 10° NW 19:30:50 14° NNW 19:30:50 14° NNW visible
